TFD1 VVPQ-VVTS

Flight info

Callsign TFD1
Flight time 0h 41m
Altitude 25000
Route TUNPO1A/28 TUNPO W8 RG W16 TRN DCT ENPAS ENPAS7D
Aircraft A321/M-SDE3FGHIRWY/LB1

Departure

Time 2026-05-07 15:10
Airport Phú Quốc International Airport (VVPQ)

Arrival

Time 2026-05-07 15:51
Airport Tan Son Nhat International Airport (VVTS)
Time Latitude Longitude Altitude Speed Heading
2026-05-07 14:53 10.16497 103.99780 57 ft 4 kts 161°
2026-05-07 14:54 10.16518 103.99768 60 ft 4 kts 111°
2026-05-07 14:54 10.16520 103.99762 59 ft 0 kts 96°
2026-05-07 14:57 10.16519 103.99772 59 ft 4 kts 96°
2026-05-07 14:57 10.16517 103.99809 63 ft 6 kts 89°
2026-05-07 14:57 10.16542 103.99837 66 ft 6 kts 23°
2026-05-07 14:58 10.16585 103.99846 57 ft 7 kts
2026-05-07 14:58 10.16640 103.99851 66 ft 8 kts
2026-05-07 14:58 10.16702 103.99859 66 ft 9 kts
2026-05-07 14:58 10.16737 103.99882 66 ft 9 kts 47°
2026-05-07 14:59 10.16746 103.99947 66 ft 10 kts 91°
2026-05-07 14:59 10.16739 104.00022 63 ft 11 kts 97°
2026-05-07 14:59 10.16728 104.00133 59 ft 12 kts 95°
2026-05-07 14:59 10.16722 104.00192 64 ft 13 kts 95°
2026-05-07 15:00 10.16713 104.00288 60 ft 14 kts 95°
2026-05-07 15:00 10.16700 104.00425 66 ft 15 kts 95°
2026-05-07 15:00 10.16693 104.00499 66 ft 16 kts 96°
2026-05-07 15:00 10.16680 104.00614 66 ft 17 kts 96°
2026-05-07 15:01 10.16684 104.00713 66 ft 12 kts 61°
2026-05-07 15:01 10.16716 104.00737 61 ft 0 kts 21°
2026-05-07 15:08 10.16717 104.00737 66 ft 0 kts 21°
2026-05-07 15:08 10.16738 104.00742 62 ft 6 kts
2026-05-07 15:08 10.16780 104.00733 61 ft 7 kts 339°
2026-05-07 15:09 10.16826 104.00713 62 ft 7 kts 329°
2026-05-07 15:09 10.16850 104.00666 61 ft 8 kts 278°
2026-05-07 15:09 10.16853 104.00650 63 ft 13 kts 278°
2026-05-07 15:09 10.16893 104.00244 67 ft 100 kts 276°
2026-05-07 15:10 10.16990 103.99283 60 ft 170 kts 276°
2026-05-07 15:10 10.17120 103.97985 663 ft 185 kts 276°
2026-05-07 15:10 10.17219 103.96732 1614 ft 171 kts 273°
2026-05-07 15:10 10.17324 103.95480 1909 ft 188 kts 275°
2026-05-07 15:11 10.17431 103.94081 2073 ft 210 kts 266°
2026-05-07 15:11 10.16932 103.92647 2260 ft 225 kts 230°
2026-05-07 15:11 10.15675 103.91733 2744 ft 225 kts 196°
2026-05-07 15:11 10.14140 103.91674 3264 ft 223 kts 162°
2026-05-07 15:12 10.12839 103.92478 3768 ft 222 kts 129°
2026-05-07 15:12 10.12147 103.93882 4133 ft 233 kts 104°
2026-05-07 15:12 10.11958 103.95581 4312 ft 254 kts 82°
2026-05-07 15:12 10.12366 103.97369 4766 ft 264 kts 72°
2026-05-07 15:13 10.12962 103.99147 5407 ft 267 kts 70°
2026-05-07 15:13 10.13589 104.00939 6066 ft 270 kts 70°
2026-05-07 15:13 10.14214 104.02714 6681 ft 272 kts 70°
2026-05-07 15:13 10.14844 104.04534 7286 ft 274 kts 72°
2026-05-07 15:14 10.15435 104.06385 7883 ft 277 kts 72°
2026-05-07 15:14 10.15871 104.08290 8462 ft 279 kts 89°
2026-05-07 15:14 10.15582 104.10240 9034 ft 282 kts 104°
2026-05-07 15:14 10.15029 104.12164 9632 ft 285 kts 106°
2026-05-07 15:15 10.14472 104.14112 10031 ft 294 kts 102°
2026-05-07 15:15 10.14058 104.16210 10145 ft 312 kts 100°
2026-05-07 15:15 10.13658 104.18441 10266 ft 329 kts 99°
2026-05-07 15:15 10.13240 104.20786 10381 ft 345 kts 99°
2026-05-07 15:16 10.12805 104.23231 10500 ft 359 kts 99°
2026-05-07 15:16 10.12354 104.25766 10736 ft 369 kts 100°
2026-05-07 15:16 10.11896 104.28338 11136 ft 372 kts 100°
2026-05-07 15:16 10.11435 104.30930 11563 ft 374 kts 100°
2026-05-07 15:17 10.10970 104.33537 11996 ft 377 kts 100°
2026-05-07 15:17 10.10502 104.36161 12414 ft 379 kts 100°
2026-05-07 15:17 10.10033 104.38797 12831 ft 381 kts 100°
2026-05-07 15:17 10.09560 104.41451 13243 ft 383 kts 100°
2026-05-07 15:18 10.09083 104.44124 13668 ft 386 kts 100°
2026-05-07 15:18 10.08604 104.46810 14038 ft 388 kts 100°
2026-05-07 15:18 10.08123 104.49510 14408 ft 390 kts 100°
2026-05-07 15:18 10.07639 104.52222 14754 ft 392 kts 100°
2026-05-07 15:19 10.07152 104.54953 15113 ft 394 kts 100°
2026-05-07 15:19 10.06668 104.57667 15451 ft 396 kts 100°
2026-05-07 15:19 10.06176 104.60422 15787 ft 398 kts 101°
2026-05-07 15:19 10.05681 104.63195 16120 ft 400 kts 101°
2026-05-07 15:20 10.05178 104.66015 16454 ft 402 kts 101°
2026-05-07 15:20 10.04684 104.68781 16781 ft 404 kts 101°
2026-05-07 15:20 10.04181 104.71593 17106 ft 406 kts 101°
2026-05-07 15:20 10.03676 104.74426 17429 ft 408 kts 101°
2026-05-07 15:21 10.03168 104.77265 17737 ft 410 kts 101°
2026-05-07 15:21 10.02658 104.80122 18046 ft 412 kts 101°
2026-05-07 15:21 10.02145 104.82990 18321 ft 414 kts 101°
2026-05-07 15:21 10.01630 104.85871 18582 ft 416 kts 101°
2026-05-07 15:22 10.01113 104.88767 18840 ft 418 kts 101°
2026-05-07 15:22 10.00593 104.91675 19104 ft 420 kts 101°
2026-05-07 15:22 10.00072 104.94593 19368 ft 421 kts 101°
2026-05-07 15:22 9.99549 104.97523 19635 ft 423 kts 101°
2026-05-07 15:23 9.99023 105.00467 19891 ft 425 kts 101°
2026-05-07 15:23 9.98495 105.03425 20133 ft 426 kts 101°
2026-05-07 15:23 9.97965 105.06390 20384 ft 428 kts 101°
2026-05-07 15:23 9.97434 105.09367 20626 ft 430 kts 101°
2026-05-07 15:24 9.96899 105.12363 20870 ft 432 kts 101°
2026-05-07 15:24 9.96367 105.15369 21107 ft 434 kts 99°
2026-05-07 15:24 9.96202 105.18430 21320 ft 437 kts 86°
2026-05-07 15:24 9.96849 105.21441 21530 ft 441 kts 71°
2026-05-07 15:25 9.97953 105.24353 21741 ft 443 kts 69°
2026-05-07 15:25 9.98986 105.27302 21958 ft 443 kts 76°
2026-05-07 15:25 9.99703 105.30350 22182 ft 444 kts 78°
2026-05-07 15:25 10.00388 105.33407 22402 ft 446 kts 78°
2026-05-07 15:26 10.01076 105.36488 22618 ft 447 kts 78°
2026-05-07 15:26 10.01764 105.39568 22824 ft 449 kts 78°
2026-05-07 15:26 10.02457 105.42670 23033 ft 451 kts 78°
2026-05-07 15:26 10.03150 105.45771 23238 ft 452 kts 78°
2026-05-07 15:27 10.03838 105.48851 23437 ft 454 kts 78°
2026-05-07 15:27 10.04538 105.51981 23607 ft 456 kts 78°
2026-05-07 15:27 10.05249 105.55162 23787 ft 457 kts 78°
2026-05-07 15:27 10.05953 105.58309 23966 ft 458 kts 78°
2026-05-07 15:28 10.06659 105.61468 24147 ft 460 kts 78°
2026-05-07 15:28 10.07358 105.64590 24326 ft 461 kts 78°
2026-05-07 15:28 10.08072 105.67768 24514 ft 462 kts 77°
2026-05-07 15:28 10.09180 105.70828 24680 ft 465 kts 62°
2026-05-07 15:29 10.11022 105.73523 24819 ft 467 kts 53°
2026-05-07 15:29 10.13043 105.76112 24860 ft 467 kts 53°
2026-05-07 15:29 10.14966 105.78764 24864 ft 467 kts 55°
2026-05-07 15:29 10.16772 105.81498 24866 ft 466 kts 57°
2026-05-07 15:30 10.18632 105.84193 24865 ft 467 kts 55°
2026-05-07 15:30 10.20530 105.86867 24862 ft 467 kts 55°
2026-05-07 15:30 10.22430 105.89538 24789 ft 468 kts 55°
2026-05-07 15:30 10.24338 105.92220 24241 ft 467 kts 55°
2026-05-07 15:31 10.26266 105.94870 23708 ft 467 kts 53°
2026-05-07 15:31 10.28258 105.97484 23127 ft 468 kts 53°
2026-05-07 15:31 10.30255 106.00096 22496 ft 468 kts 53°
2026-05-07 15:31 10.32251 106.02704 21878 ft 467 kts 53°
2026-05-07 15:32 10.34235 106.05297 21281 ft 463 kts 53°
2026-05-07 15:32 10.36202 106.07867 20691 ft 458 kts 53°
2026-05-07 15:32 10.38149 106.10412 20106 ft 454 kts 53°
2026-05-07 15:32 10.40136 106.12833 19579 ft 451 kts 50°
2026-05-07 15:33 10.42239 106.15229 19035 ft 447 kts 50°
2026-05-07 15:33 10.44303 106.17570 18501 ft 441 kts 50°
2026-05-07 15:33 10.46300 106.19833 17979 ft 419 kts 50°
2026-05-07 15:33 10.48175 106.21957 17427 ft 400 kts 50°
2026-05-07 15:34 10.50003 106.24028 16917 ft 390 kts 50°
2026-05-07 15:34 10.51802 106.26068 16403 ft 386 kts 50°
2026-05-07 15:34 10.53575 106.28077 15657 ft 378 kts 50°
2026-05-07 15:34 10.55301 106.30032 15199 ft 361 kts 50°
2026-05-07 15:35 10.56919 106.31864 15075 ft 335 kts 50°
2026-05-07 15:35 10.58429 106.33573 14964 ft 317 kts 50°
2026-05-07 15:35 10.59855 106.35223 14847 ft 304 kts 52°
2026-05-07 15:35 10.61146 106.36874 14732 ft 292 kts 53°
2026-05-07 15:36 10.62372 106.38471 14615 ft 282 kts 54°
2026-05-07 15:36 10.63564 106.40028 14370 ft 277 kts 54°
2026-05-07 15:36 10.64739 106.41566 14071 ft 274 kts 55°
2026-05-07 15:36 10.65570 106.43270 13758 ft 268 kts 80°
2026-05-07 15:37 10.65529 106.45136 13354 ft 265 kts 107°
2026-05-07 15:37 10.64623 106.46758 12845 ft 268 kts 133°
2026-05-07 15:37 10.63228 106.48016 12464 ft 269 kts 139°
2026-05-07 15:37 10.61846 106.49280 12100 ft 266 kts 125°
2026-05-07 15:38 10.60847 106.50849 11750 ft 264 kts 118°
2026-05-07 15:38 10.60079 106.52530 11317 ft 262 kts 109°
2026-05-07 15:38 10.59458 106.54274 10783 ft 262 kts 107°
2026-05-07 15:38 10.58859 106.56024 10301 ft 261 kts 107°
2026-05-07 15:39 10.58274 106.57759 9835 ft 259 kts 104°
2026-05-07 15:39 10.57891 106.59537 9367 ft 257 kts 98°
2026-05-07 15:39 10.57599 106.61313 9078 ft 253 kts 97°
2026-05-07 15:39 10.57325 106.63057 8753 ft 252 kts 96°
2026-05-07 15:40 10.57305 106.64823 8414 ft 249 kts 84°
2026-05-07 15:40 10.57461 106.66570 8075 ft 248 kts 81°
2026-05-07 15:40 10.57736 106.68295 7737 ft 247 kts 78°
2026-05-07 15:40 10.58057 106.70003 7409 ft 245 kts 76°
2026-05-07 15:41 10.58548 106.71657 7077 ft 244 kts 70°
2026-05-07 15:41 10.59126 106.73276 6748 ft 243 kts 65°
2026-05-07 15:41 10.59850 106.74823 6431 ft 242 kts 64°
2026-05-07 15:41 10.60584 106.76358 6101 ft 241 kts 64°
2026-05-07 15:42 10.61315 106.77889 5761 ft 240 kts 64°
2026-05-07 15:42 10.62065 106.79400 5413 ft 239 kts 58°
2026-05-07 15:42 10.63010 106.80790 5060 ft 239 kts 51°
2026-05-07 15:42 10.64151 106.82010 4706 ft 238 kts 45°
2026-05-07 15:43 10.65394 106.83123 4355 ft 238 kts 38°
2026-05-07 15:43 10.66741 106.84094 4045 ft 236 kts 36°
2026-05-07 15:43 10.68088 106.85028 3992 ft 235 kts 36°
2026-05-07 15:43 10.69448 106.85966 3992 ft 237 kts 36°
2026-05-07 15:44 10.70351 106.86589 3994 ft 236 kts 36°
2026-05-07 15:44 10.72291 106.87647 3980 ft 239 kts 22°
2026-05-07 15:44 10.73328 106.88021 3979 ft 239 kts 21°
2026-05-07 15:44 10.75498 106.88544 3980 ft 240 kts 10°
2026-05-07 15:45 10.76598 106.88672 3982 ft 241 kts
2026-05-07 15:45 10.78276 106.88810 3983 ft 242 kts
2026-05-07 15:45 10.79951 106.88934 3983 ft 241 kts
2026-05-07 15:45 10.82170 106.89096 3983 ft 241 kts
2026-05-07 15:46 10.84931 106.88795 3980 ft 244 kts 330°
2026-05-07 15:46 10.86163 106.87663 3887 ft 234 kts 307°
2026-05-07 15:46 10.87040 106.86302 3660 ft 228 kts 300°
2026-05-07 15:47 10.87582 106.84824 3305 ft 226 kts 281°
2026-05-07 15:47 10.87872 106.83255 2991 ft 222 kts 278°
2026-05-07 15:47 10.88080 106.81741 2875 ft 205 kts 268°
2026-05-07 15:47 10.87809 106.80397 2748 ft 190 kts 250°
2026-05-07 15:48 10.87386 106.79161 2638 ft 179 kts 247°
2026-05-07 15:48 10.86962 106.78003 2433 ft 171 kts 246°
2026-05-07 15:48 10.86550 106.76887 2162 ft 164 kts 246°
2026-05-07 15:48 10.86155 106.75819 1883 ft 160 kts 246°
2026-05-07 15:49 10.85766 106.74764 1570 ft 159 kts 245°
2026-05-07 15:49 10.85376 106.73722 1504 ft 159 kts 242°
2026-05-07 15:49 10.84921 106.72700 1463 ft 160 kts 239°
2026-05-07 15:49 10.84479 106.71654 1310 ft 162 kts 246°
2026-05-07 15:50 10.84089 106.70576 1109 ft 161 kts 245°
2026-05-07 15:50 10.83691 106.69518 838 ft 159 kts 249°
2026-05-07 15:50 10.83330 106.68470 632 ft 154 kts 246°
2026-05-07 15:50 10.82936 106.67457 377 ft 153 kts 245°
2026-05-07 15:51 10.82542 106.66442 135 ft 154 kts 248°
2026-05-07 15:51 10.82164 106.65474 37 ft 130 kts 250°
2026-05-07 15:51 10.81901 106.64782 36 ft 80 kts 249°
2026-05-07 15:51 10.81772 106.64447 37 ft 37 kts 232°
2026-05-07 15:52 10.81619 106.64320 34 ft 19 kts 217°
2026-05-07 15:52 10.81520 106.64301 36 ft 11 kts 164°
2026-05-07 15:52 10.81497 106.64308 36 ft 0 kts 161°
2026-05-07 15:54 10.81479 106.64315 37 ft 6 kts 160°
2026-05-07 15:54 10.81426 106.64335 37 ft 10 kts 159°
2026-05-07 15:54 10.81346 106.64366 37 ft 14 kts 159°
2026-05-07 15:55 10.81257 106.64404 35 ft 8 kts 141°
2026-05-07 15:55 10.81254 106.64463 38 ft 10 kts 72°
2026-05-07 15:55 10.81278 106.64534 38 ft 12 kts 70°
2026-05-07 15:55 10.81309 106.64625 39 ft 15 kts 71°
2026-05-07 15:56 10.81349 106.64740 39 ft 19 kts 71°
2026-05-07 15:56 10.81405 106.64870 40 ft 22 kts 69°
2026-05-07 15:56 10.81465 106.65027 40 ft 24 kts 67°
2026-05-07 15:56 10.81521 106.65178 38 ft 19 kts 66°
2026-05-07 15:57 10.81570 106.65311 36 ft 22 kts 71°
2026-05-07 15:57 10.81624 106.65450 34 ft 21 kts 69°
2026-05-07 15:57 10.81678 106.65590 34 ft 21 kts 70°
2026-05-07 15:57 10.81724 106.65715 35 ft 14 kts 69°
2026-05-07 15:58 10.81696 106.65817 33 ft 18 kts 112°
2026-05-07 15:58 10.81695 106.65934 37 ft 17 kts 70°
2026-05-07 15:58 10.81734 106.66038 37 ft 14 kts 69°
2026-05-07 15:58 10.81769 106.66131 36 ft 13 kts 69°
2026-05-07 15:59 10.81784 106.66201 37 ft 10 kts 109°
2026-05-07 15:59 10.81738 106.66235 37 ft 4 kts 159°
2026-05-07 15:59 10.81713 106.66244 37 ft 3 kts 159°
2026-05-07 15:59 10.81705 106.66248 37 ft 0 kts 158°
2026-05-07 16:00 10.81704 106.66248 37 ft 0 kts 158°
2026-05-07 16:00 10.81703 106.66249 37 ft 0 kts 158°